This demonstration page uses our WeatherBlox Daily Observations layout. Learn more.

Left ArrowRight Arrow

41.55636, -103.73856

Hourly Observations for March 12, 2021

Temp ( °F °C ) Dew Point ( °F °C ) Humidity (%) Winds ( mph kmh ) Pressure ( in mb ) Visibility ( mi km ) Precip ( " mm )
12:58 am 00:58 Cloudy with Light Snow 30 -1 27 -2.9 87 87 E 6 9 30.28 1025 8 13 0.01 0.25
1:58 am 01:58 Mostly Cloudy with Light Snow Showers 30 -1.1 25 -3.8 82 82 SE 8 13 30.28 1025 10 16 0.00 0.00
2:58 am 02:58 Cloudy with Light Snow Showers 31 -0.8 28 -2 92 92 SSE 8 13 30.27 1025 10 16 0.00 0.00
3:58 am 03:58 Mostly Cloudy 28 -2 27 -2.9 94 94 SE 9 15 30.24 1024 10 16 0.00 0.00
4:58 am 04:58 Cloudy 31 -0.6 28 -2.3 88 88 SE 9 15 30.25 1025 10 16 0.00 0.00
5:58 am 05:58 Cloudy 30 -1 26 -3.2 85 85 SE 13 20 30.29 1026 10 16 0.00 0.00
6:58 am 06:58 Mostly Cloudy 30 -1.2 25 -4 82 82 SE 10 17 30.32 1027 10 16 0.00 0.00
7:58 am 07:58 Mostly Cloudy 31 -0.7 25 -3.9 79 79 SSE 8 13 30.34 1027 10 16 0.00 0.00
8:58 am 08:58 Cloudy 32 -0.1 25 -3.7 77 77 SSE 14 22 30.35 1028 10 16 0.00 0.00
9:58 am 09:58 Mostly Cloudy 35 1.8 28 -2.3 75 75 SSE 16 26 30.33 1027 10 16 0.00 0.00
10:58 am 10:58 Mostly Cloudy 37 3 27 -2.7 67 67 S 18 30 30.32 1027 10 16 0.00 0.00
11:58 am 11:58 Mostly Cloudy 40 4.2 27 -2.8 61 61 S 17 28 30.29 1026 10 16 0.00 0.00
12:58 pm 12:58 Mostly Cloudy 42 5.3 26 -3.2 55 55 SSE 17 28 30.27 1025 10 16 0.00 0.00
1:58 pm 13:58 Mostly Cloudy 43 5.9 26 -3.4 52 52 SSE 20 31 30.25 1025 10 16 0.00 0.00
2:58 pm 14:58 Mostly Cloudy 43 5.9 27 -2.8 54 54 SSE 17 28 30.23 1024 10 16 0.00 0.00
3:58 pm 15:58 Mostly Cloudy 42 5.5 26 -3.4 53 53 SSE 20 31 30.24 1024 10 16 0.00 0.00
4:58 pm 16:58 Mostly Cloudy 41 4.8 26 -3.3 56 56 SSE 17 28 30.25 1025 10 16 0.00 0.00
5:58 pm 17:58 Mostly Cloudy 39 4.1 26 -3.4 58 58 SE 10 17 30.26 1025 10 16 0.00 0.00
6:58 pm 18:58 Mostly Cloudy 38 3.5 26 -3.1 62 62 SE 10 17 30.29 1026 10 16 0.00 0.00
7:58 pm 19:58 Cloudy 37 3 27 -2.9 66 66 ESE 10 17 30.30 1026 10 16 0.00 0.00
8:58 pm 20:58 Mostly Cloudy 37 2.8 27 -2.9 66 66 SSE 15 24 30.31 1026 10 16 0.00 0.00
9:58 pm 21:58 Mostly Cloudy 35 1.5 30 -1.2 82 82 SSE 15 24 30.29 1026 10 16 0.00 0.00
10:58 pm 22:58 Cloudy 34 1.1 30 -0.9 87 87 SE 7 11 30.28 1026 10 16 0.00 0.00
11:58 pm 23:58 Cloudy 34 0.9 31 -0.7 89 89 SE 12 19 30.26 1025 10 16 0.00 0.00

Powered by AerisWeather